Regional Weather Roundup
Issued by NWS Wakefield, VA

Home | Current Version | Previous Version | Text Only | Print | Product List | Glossary Off
Versions: 1 2 3 4 5 6 7 8 9 10 11 12 13 14 15 16 17 18 19 20 21 22 23 24 25 26 27 28 29 30 31 32 33 34 35 36 37 38 39 40 41 42 43 44 45 46 47 48 49 50

000
ASUS41 KAKQ 200610
RWRAKQ

REGIONAL WEATHER ROUNDUP
NATIONAL WEATHER SERVICE WAKEFIELD VA
200 AM EDT MON OCT 20 2014

Note: "fair" indicates few or no clouds below 12,000 feet with no
significant weather and/or obstructions to visibility. * = Denotes
station may not report precipitation (e.g., rain,snow,etc.),
thunder or fog.

VAZ042-051-052>054-056-200700-
NORTHERN VIRGINIA

CITY           SKY/WX    TMP DP  RH WIND       PRES   REMARKS
WASH NATIONAL  MOCLDY    48  38  68 N6        30.12S
DULLES         MOCLDY    38  36  92 SW3       30.11S
FORT BELVOIR   PTCLDY    40  38  94 N1        30.12S
QUANTICO       PTCLDY    43  39  86 W7        30.13S
FREDERICKSBRG* MOCLDY    40  40 100 CALM      30.12S
STAFFORD*      MOCLDY    35  35 100 CALM      30.15F
WARRENTON      PTCLDY    37  37 100 CALM      30.11S
CULPEPER*      MOCLDY    37  37 100 CALM      30.12S
MANASSAS*      PTCLDY    39  37  93 CALM      30.12S
LEESBURG*      MOCLDY    41  39  93 CALM      30.11F
WINCHESTER     CLOUDY    39  32  75 CALM      30.09F
FRONT ROYAL*   PTCLDY    37  36  93 CALM      30.09S
LURAY*         PTCLDY    41  39  93 CALM      30.10S
$$

VAZ048-049-060>072-079>083-200700-
CENTRAL AND SOUTH CENTRAL VIRGINIA...AND NORTH CENTRAL NORTH CAROLINA

CITY           SKY/WX    TMP DP  RH WIND       PRES   REMARKS
RICHMOND       MOCLDY    43  36  76 CALM      30.12S
CHESTERFIELD*  MOCLDY   N/A N/A N/A CALM      30.13S
PETERSBURG*    MOCLDY    36  35  98 CALM      30.13S
HANOVER        MOCLDY    39  37  92 CALM      30.13F
TAPPAHANNOCK*  MOCLDY    38  35  89 CALM      30.13S
CHARLOTTSVILLE PTCLDY    40  37  89 CALM      30.11S
ORANGE*        MOCLDY    37  36  93 CALM      30.12S
LOUISA*        MOCLDY    37  36  93 SE3       30.10S
FARMVILLE*     PTCLDY    37  36  93 CALM      30.09F
CREWE*         CLEAR     38  37  94 CALM      30.11S
FORT PICKETT*  CLEAR     40  40  98 CALM      30.12S
LUNENBURG*     CLEAR     42  41  97 CALM      30.12R
SOUTH HILL*    CLEAR     41  41 100 CALM      30.18R
LAWRENCEVILLE* CLEAR     43  42  97 CALM      30.12S
ROANOKE RAPIDS CLEAR     39  39 100 CALM      30.13S
RALEIGH        PTCLDY    43  40  89 CALM      30.13F
$$

VAZ088>098-200700-
SOUTHEAST VIRGINIA

CITY           SKY/WX    TMP DP  RH WIND       PRES   REMARKS
NORFOLK        PTCLDY    47  41  80 SW3       30.13R
VIRGINIA BEACH PTCLDY    45  37  73 SW3       30.12S
NORFOLK NAVAL  PTCLDY    50  40  68 CALM      30.14S
WEST POINT*    MOCLDY    40  38  91 CALM      30.14S
NEWPORT NEWS   PTCLDY    43  38  82 CALM      30.13R
LANGLEY AFB    PTCLDY    44  43  96 S1        30.13S
FORT EUSTIS    MOCLDY    45  45 100 CALM      30.11S
WILLIAMSBURG*  MOCLDY    45  45 100 CALM      30.14R
HR EXEC AP*    PTCLDY    36  32  87 CALM      30.15S
FRANKLIN*      MOCLDY    39  39 100 CALM      30.14S
WAKEFIELD      MOCLDY    39  37  92 CALM      30.14R
$$

VAZ020-022-025-037-045-200700-
WEST CENTRAL AND SOUTHWEST VIRGINIA

CITY           SKY/WX    TMP DP  RH WIND       PRES   REMARKS
STAUNTON*      PTCLDY    36  33  87 CALM      30.12F
HOT SPRINGS VA PTCLDY    41  32  70 SW6       30.08F
LYNCHBURG      CLEAR     36  36 100 S3        30.12S
DANVILLE       CLEAR     41  39  93 CALM      30.13S
SOUTH BOSTON*  NOT AVBL
MARTINSVILLE   PTCLDY    37  37 100 CALM      30.15F
ROANOKE        PTCLDY    40  36  86 CALM      30.14F
BLACKSBURG     PTCLDY    36  36 100 CALM      30.14F
DUBLIN*        PTCLDY    39  37  93 CALM      30.13F
MARION*        PTCLDY    37  36  94 CALM      30.15F
HILLSVILLE*    PTCLDY    41  36  83 SW5       30.13F
RICHLANDS*     PTCLDY    45  37  73 CALM      30.10S
WISE*          PTCLDY    41  36  81 SW6       30.10F
ABINGDON*      CLEAR     43  39  87 E3        30.10F
$$

MDZ021>025-VAZ099-100-200700-
SOUTHERN MARYLAND AND THE DELMARVA PENINSULA

CITY           SKY/WX    TMP DP  RH WIND       PRES   REMARKS
PATUXENT RIVER PTCLDY    40  36  86 SW3       30.11S
BAY BRIDGE APT   N/A     52  36  54 NW5       30.11S
LEONARDTOWN    PTCLDY    37  36  93 CALM      30.13S
DOVER          PTCLDY    40  35  83 W1        30.08S
GEORGETOWN     PTCLDY    38  35  89 CALM      30.12R
EASTON         PTCLDY    42  41  97 CALM      30.14F
CAMBRIDGE      PTCLDY    39  36  87 CALM      30.10S
SALISBURY      PTCLDY    38  34  85 CALM      30.12R
OCEAN CITY     PTCLDY    36  34  92 CALM      30.11F
WALLOPS ISLAND PTCLDY    43  38  82 CALM      30.12S
ACCOMACK*      PTCLDY    39  36  87 CALM      30.12R
$$

NCZ012>017-030>032-200700-
EASTERN NORTH CAROLINA

CITY           SKY/WX    TMP DP  RH WIND       PRES   REMARKS
ELIZABETH CITY PTCLDY    44  40  85 SW3       30.14S
AHOSKIE*       PTCLDY    39  38  97 CALM      30.14S
EDENTON*       PTCLDY    41  39  93 CALM      30.14S
CURRITUCK*     PTCLDY    44  40  85 CALM      30.14S
KILL DEVIL HLS PTCLDY    56  40  55 NW3       30.11F
MANTEO         PTCLDY    56  37  48 NW3       30.13S
CAPE HATTERAS  CLEAR     52  39  61 NE3       30.13S
TARBORO*       CLOUDY    41  40  96 CALM      30.15S
GOLDSBORO      CLEAR     44  43  98 CALM      30.13R
WASHINGTON     CLEAR     43  41  93 CALM      30.15R
GREENVILLE     LGT SNOW  43  43 100 CALM      30.16R VSB 3/4
NEW BERN       PTCLDY    46  43  89 CALM      30.15F
WILMINGTON     CLEAR     46  44  93 CALM      30.14S
$$

VAZ048-200700-
ELSEWHERE

CITY           SKY/WX    TMP DP  RH WIND       PRES   REMARKS
HARRISBURG PA  MOCLDY    43  37  79 E3        30.08S
BALTIMORE      MOCLDY    39  36  89 W3        30.11S
ANNAPOLIS      PTCLDY    45  35  68 W3        30.11S
ANDREWS AFB    PTCLDY    41  37  87 CALM      30.11S
WILMINGTON DE  PTCLDY    41  36  82 CALM      30.11S
PHILADELPHIA   PTCLDY    45  31  58 CALM      30.12R
WILDWOOD NJ*   PTCLDY    43  30  61 N3        30.11R
ATLANTIC CITY  MOCLDY    36  32  85 CALM      30.11R
HENDERSON NC   CLEAR     41  40  95 SW5       30.13R
GREENSBORO     CLEAR     47  41  80 CALM      30.12S
ROCKY MOUNT    CLEAR     42  40  92 CALM      30.14S
FAYETTEVILLE   CLEAR     47  43  86 CALM      30.13S
CHARLOTTE      CLOUDY    50  43  77 CALM      30.13S
$$

VAZ100-200700-
MARINE

STATION/POSITION TIME  TEMP    WIND        PRES    WAVE   SWELL
                       AIR SEA DIR/SP/G            HT/PER HT/PER
                 (UTC) (F)     (DEG/KT/KT) (MB)    (FT/S) (FT/S)
44066 TX TWR #4  0600   51 66  320/ 16/ 21 1017.5R   6/ 6   2/11
CAPE MAY NJ      0600   47 64   50/  5/  7 1018.8R
LEWES DE         0600   44 61  240/  5/  7 1019.2R
15NM E FENWICK I 0600   57 66  290/ 10/ 14 1018.9F   3/12   3/12
OCEAN-CITY-INLET 0600   49 63   CALM  /  1 1019.1S
WACHAPREAGUE VA  0600   43 61   CALM  /  2 1019.8S
THOMAS POINT MD  0600   52 64  290/  7/  8 1020.8R
GOOSES REEF MD   0600   56     340/  8/ 10 1020.0F
COVE POINT MD    0600   53     330/  4/  5 1019.5R
SOLOMONS ISLAND  0600      66                N/A
BISHOPS HEAD MD  0600   51 58  330/  5/  5 1019.0R
PINEY POINT MD   0600           10/  5/  7   N/A
POTOMAC MD       0600   56      40/  8/ 10 1018.9F
CAMBRIDGE MD     0600   55 63  330/  9/ 11 1019.1F
LEWISETTA VA     0600   49 62  250/  4/  5 1019.4R
RAPPAHANNOCK LGT 0600          350/ 10/ 11 1020.0F
STINGRAY PT      0600   58     350/  6/  8 1020.3S
YORK RVR RNG VA  0600   57     350/  3/  4 1019.6R
YORKTOWN VA      0600   51 66  190/  2/  3 1019.8R
JAMESTOWN VA     0600   51      70/  2/  2   N/A
DOMINION TERM VA 0600   55      30/  2/  4 1020.2S
KIPTOPEKE VA     0600      69   80/  4/  4   N/A
CHES BAY BRIDGE  0600   60 67  330/  8/ 12 1019.5R
CHESAPEAKE LGHT  0500   60     360/ 12/ 14 1020.5R
WILLOUBY STN VA  0600   58     360/  5/  6 1018.7F
S CRANEY ISL VA  0600          180/  2/  2 1019.9S
CAPE HENRY BUOY  0600      69                N/A     3/13   2/13
1ST LANDING BUOY 0600   61     350/  8/ 12 1019.5S
CAPE CHARLES BUO 0600      69                N/A     2/13   2/13
64NM E OF VA BCH 0600   60 69  360/ 14/ 17 1019.3F   5/ 5   3/13
DUCK PIER NC     0600   59 69  330/  8/ 10 1019.2F
44100 DUCK FRF   0600      71                N/A     4/12   2/12
44056 DUCK FRF   0600                        N/A     4/ 6   2/13
OREGON INLET NC  0600   56 70  350/  2/  6 1019.8F
HATTERAS NC      0600   61 68   20/  8/ 11 1020.5F
DIAMOND SHLS NC  0600   61     360/  8/ 12 1020.3S   4/11   3/11
CAPE LOOKOUT NC  0500   60     360/  6/  7 1020.3F
$$



USA.gov is the U.S. government's official web portal to all federal, state and local government web resources and services.